Probability
100 100 100 94 3 0 0 0 0 0 0 0 0 0 0 0 0 10 16 0 19 90 100 100 100 100 100 100 100 100 100 100 100 100 100 100 100 90 94 97 100 97 94 94 100 97 100 97 97
100 100 87 19 0 0 0 0 0 0 0 0 0 0 0 0 0 6 0 3 35 84 100 100 100 100 100 100 100 100 100 100 97 97 97 97 97 97 94 94 90 84 90 94 94 97 97 100 97
100 97 52 0 0 0 0 0 0 0 0 0 0 0 0 0 0 0 6 10 45 87 100 100 100 100 100 100 100 100 100 97 97 97 94 94 94 87 90 74 71 74 71 81 90 87 90 94 97
100 65 3 0 0 0 0 0 0 0 0 0 0 0 0 3 6 0 0 16 39 81 97 100 100 100 100 100 100 100 100 100 97 97 84 81 81 81 74 65 61 45 55 71 84 90 87 90 100
77 23 0 0 0 0 0 0 0 0 0 0 0 0 0 35 16 3 6 10 26 65 81 100 100 100 100 100 100 100 100 100 84 84 81 81 71 71 61 55 65 45 32 52 74 84 90 90 90
61 0 0 0 0 0 0 0 0 0 0 0 0 0 6 52 39 16 6 10 6 32 55 90 100 100 100 100 100 100 100 100 90 87 84 90 87 74 48 48 52 42 32 26 42 55 71 81 77
58 0 0 0 0 0 0 0 3 0 0 0 0 0 0 61 84 65 42 35 13 13 29 61 100 100 100 100 100 100 100 100 97 94 94 94 90 81 61 45 39 32 26 13 16 26 52 61 71
13 0 0 0 0 0 0 0 0 3 3 0 0 0 0 61 94 90 71 52 23 23 23 23 52 84 94 100 100 100 100 100 100 100 100 97 90 87 87 65 45 19 16 3 0 6 26 48 48
0 0 0 0 0 0 0 0 0 0 0 6 13 23 42 87 90 84 74 71 61 42 39 32 45 65 74 81 87 100 100 100 100 100 100 97 87 77 87 68 68 26 3 0 0 0 3 16 29
0 0 0 3 0 0 0 0 0 0 0 6 10 42 68 77 74 58 58 52 48 58 42 52 55 61 74 74 81 100 100 100 100 100 97 94 65 39 6 65 77 48 10 3 0 0 0 0 3
0 0 3 3 0 0 0 0 0 0 0 3 13 29 39 42 39 48 48 45 52 52 61 58 68 81 71 97 100 100 100 100 100 97 97 100 81 77 29 45 81 68 32 13 10 0 0 0 0
0 0 0 0 0 0 0 0 0 0 0 0 3 10 6 6 6 10 19 16 26 29 32 39 58 71 77 97 97 100 97 100 100 100 100 97 97 90 45 42 13 16 32 19 3 0 0 0 0
0 0 0 0 0 0 0 0 0 0 0 0 0 0 0 0 0 0 3 3 3 3 3 16 26 35 58 81 97 100 100 100 100 100 97 94 97 97 74 42 35 6 3 6 6 3 0 0 0
0 0 0 0 0 0 0 0 0 0 0 0 0 0 0 0 0 0 0 0 0 3 3 3 10 13 29 55 71 77 97 100 100 100 100 90 100 97 97 65 23 10 6 3 3 3 3 0 0
0 0 0 0 0 0 0 0 0 0 0 0 0 0 0 0 0 0 0 0 0 0 0 0 3 0 3 26 39 55 74 81 84 90 97 87 97 94 94 87 52 19 10 0 0 0 0 0 0
0 0 0 0 0 0 0 0 0 0 0 0 0 0 0 0 0 0 0 0 0 0 0 0 0 0 0 0 19 32 45 61 68 65 65 68 87 87 100 100 77 32 16 13 13 3 3 0 0
0 0 0 0 0 0 0 0 0 0 0 0 0 0 0 0 0 0 0 0 0 0 0 0 0 0 0 0 10 35 42 61 55 61 61 61 68 71 94 97 100 68 71 58 16 3 3 0 0
0 0 0 0 0 0 0 0 0 0 0 0 0 0 0 0 0 0 0 0 0 0 0 0 0 0 0 0 0 16 39 58 61 65 61 58 61 68 77 94 94 87 94 84 52 13 6 3 0
0 0 0 0 0 0 0 0 0 0 0 0 0 0 0 0 0 0 0 0 0 0 0 0 0 0 0 0 0 0 6 32 39 61 74 71 55 55 74 74 87 87 90 74 42 42 10 16 0
0 0 0 0 0 0 0 0 0 0 0 0 0 0 0 0 0 0 0 0 0 0 0 0 0 0 0 0 0 0 3 6 29 58 68 68 77 81 71 74 81 87 87 74 71 55 39 23 0
0 0 0 0 0 0 0 0 0 0 0 0 0 0 0 0 0 0 0 0 0 0 0 0 0 0 0 0 3 10 13 26 32 48 68 74 77 90 84 81 71 68 77 77 61 45 42 29 6
0 0 0 0 0 0 0 0 0 0 0 0 0 0 0 0 0 0 0 0 0 0 0 0 0 0 0 3 6 10 29 29 26 35 55 65 68 84 87 84 77 68 65 65 52 39 35 42 26
0 0 0 0 0 0 0 0 0 0 0 0 0 0 0 0 0 0 0 0 0 0 0 0 0 0 0 0 13 29 32 35 42 45 55 71 68 71 68 84 81 71 61 61 52 42 48 32 26
0 0 0 0 0 0 0 0 0 0 0 0 0 0 0 0 0 0 0 0 0 0 0 0 0 0 0 10 13 23 23 32 42 55 55 61 65 68 61 71 77 77 84 65 58 55 39 29 23
0 0 0 0 0 0 0 0 0 0 0 0 0 0 0 0 0 0 0 0 0 0 0 0 0 0 0 3 19 19 16 19 23 26 39 45 39 35 45 42 55 55 48 55 52 52 35 29 29
0 0 0 0 0 0 0 0 0 0 0 0 0 0 0 0 0 0 0 0 0 0 0 0 0 0 0 3 0 10 16 13 10 16 13 6 10 13 16 19 26 32 29 23 32 29 19 16 16
0 0 0 0 0 0 0 0 0 0 0 0 0 0 0 0 0 0 0 0 0 0 0 0 0 0 0 0 0 3 0 3 3 6 10 6 3 0 0 3 3 3 6 6 10 26 23 16 6
0 0 0 0 0 0 0 0 0 0 0 0 0 0 0 0 0 0 0 0 0 0 0 0 0 0 0 0 0 0 0 3 0 3 3 0 0 0 0 0 0 0 0 0 0 0 6 6 3
0 0 0 0 0 0 0 0 0 0 0 0 0 0 0 0 0 0 0 0 0 0 0 0 0 0 0 0 0 0 0 0 0 0 0 0 0 0 0 0 0 0 0 0 0 0 0 0 0
0 0 0 0 0 0 0 0 0 0 0 0 0 0 0 0 0 0 0 0 0 0 0 0 0 0 0 0 0 0 0 0 0 0 0 0 0 0 0 0 0 0 0 0 0 0 0 0 0
Height
5934 5934 5934 5935 5936 5936 5935 5935 5934 5933 5932 5932 5931 5931 5930 5930 5931 5933 5930 5928 5928 5928 5927 5927 5927 5927 5927 5926 5926 5925 5924 5923 5922 5921 5919 5918 5917 5916 5915 5914 5913 5912 5911 5911 5910 5910 5909 5909 5910
5935 5935 5936 5937 5936 5936 5936 5935 5934 5933 5933 5932 5931 5931 5931 5930 5930 5930 5929 5929 5928 5928 5927 5927 5928 5928 5927 5927 5927 5926 5926 5925 5924 5923 5922 5920 5919 5918 5917 5916 5914 5913 5912 5911 5911 5910 5910 5910 5910
5936 5936 5937 5937 5936 5936 5936 5935 5934 5933 5933 5932 5932 5931 5931 5930 5930 5929 5929 5929 5928 5928 5928 5927 5928 5928 5928 5927 5927 5927 5927 5926 5925 5924 5923 5922 5921 5920 5918 5917 5916 5915 5914 5913 5912 5911 5911 5910 5910
5937 5938 5938 5938 5937 5936 5936 5935 5934 5934 5933 5933 5932 5932 5931 5930 5930 5929 5929 5928 5928 5928 5927 5927 5927 5927 5927 5927 5927 5927 5927 5926 5926 5925 5924 5923 5922 5921 5920 5919 5918 5917 5916 5915 5914 5913 5912 5912 5911
5938 5939 5939 5938 5937 5937 5936 5935 5935 5934 5934 5933 5933 5932 5931 5930 5930 5929 5929 5928 5928 5927 5927 5927 5927 5927 5926 5926 5926 5926 5926 5926 5926 5925 5924 5924 5923 5922 5921 5920 5919 5918 5917 5916 5915 5914 5914 5913 5913
5939 5939 5939 5938 5938 5937 5936 5935 5935 5935 5934 5934 5933 5933 5932 5931 5930 5929 5929 5928 5928 5927 5927 5926 5926 5926 5925 5925 5925 5925 5925 5925 5925 5924 5924 5923 5923 5922 5921 5921 5920 5919 5919 5918 5917 5916 5916 5915 5915
5940 5939 5938 5938 5938 5937 5937 5936 5935 5935 5934 5934 5933 5933 5932 5931 5930 5930 5929 5928 5928 5927 5926 5926 5925 5925 5924 5924 5924 5924 5923 5923 5923 5923 5923 5922 5922 5921 5921 5920 5920 5920 5919 5919 5918 5918 5917 5917 5916
5938 5939 5938 5937 5937 5937 5936 5935 5935 5934 5934 5933 5933 5932 5932 5931 5930 5929 5928 5928 5927 5926 5925 5925 5924 5923 5923 5923 5922 5922 5921 5921 5921 5921 5921 5921 5920 5920 5919 5919 5919 5919 5919 5919 5919 5919 5918 5918 5918
5937 5939 5937 5936 5936 5936 5935 5935 5934 5933 5932 5932 5931 5931 5930 5929 5929 5928 5927 5926 5926 5925 5924 5923 5922 5922 5921 5920 5920 5919 5919 5919 5919 5919 5919 5919 5918 5918 5918 5918 5918 5918 5918 5919 5919 5919 5919 5919 5919
5936 5936 5935 5935 5934 5934 5933 5933 5932 5931 5930 5930 5929 5929 5928 5927 5926 5926 5925 5924 5923 5922 5922 5921 5920 5919 5919 5918 5917 5917 5916 5916 5916 5916 5916 5916 5916 5916 5916 5916 5916 5917 5917 5917 5917 5918 5918 5918 5918
5933 5933 5932 5932 5931 5931 5931 5930 5929 5928 5928 5927 5926 5925 5925 5924 5923 5922 5921 5921 5920 5919 5918 5918 5917 5916 5915 5915 5914 5913 5913 5913 5912 5913 5913 5913 5913 5913 5914 5914 5914 5914 5915 5915 5916 5916 5917 5917 5917
5931 5930 5929 5929 5928 5928 5927 5926 5925 5924 5924 5923 5922 5921 5920 5919 5918 5918 5917 5916 5915 5914 5914 5913 5912 5912 5911 5910 5910 5909 5909 5909 5909 5909 5909 5909 5910 5910 5910 5911 5911 5912 5912 5913 5913 5914 5914 5915 5916
5928 5927 5926 5926 5925 5924 5923 5922 5922 5920 5919 5918 5917 5916 5915 5914 5913 5912 5912 5911 5910 5909 5909 5907 5906 5905 5905 5904 5904 5904 5904 5904 5904 5904 5904 5905 5905 5906 5907 5907 5908 5908 5909 5910 5910 5911 5912 5912 5913
5925 5924 5923 5922 5921 5919 5918 5918 5917 5915 5914 5913 5912 5911 5909 5908 5907 5906 5905 5904 5903 5903 5902 5901 5900 5899 5898 5897 5897 5898 5897 5897 5898 5898 5899 5900 5900 5901 5902 5902 5903 5904 5905 5906 5907 5908 5908 5909 5910
5921 5920 5919 5918 5916 5915 5913 5913 5911 5909 5908 5906 5904 5903 5902 5900 5899 5898 5897 5896 5895 5894 5894 5893 5892 5892 5892 5891 5891 5890 5889 5890 5890 5891 5892 5893 5894 5895 5896 5897 5898 5899 5901 5902 5903 5904 5904 5905 5906
5917 5916 5914 5913 5911 5909 5909 5907 5904 5902 5901 5899 5897 5895 5893 5891 5890 5888 5887 5886 5886 5885 5884 5883 5883 5882 5882 5882 5882 5883 5882 5883 5883 5883 5884 5885 5887 5888 5890 5891 5892 5894 5895 5896 5898 5899 5900 5901 5902
5913 5911 5908 5907 5905 5903 5902 5899 5897 5895 5893 5891 5888 5886 5884 5882 5880 5878 5877 5876 5875 5874 5874 5873 5872 5872 5872 5872 5873 5874 5874 5875 5875 5875 5876 5878 5879 5880 5882 5884 5885 5887 5889 5891 5892 5893 5894 5895 5896
5908 5906 5903 5901 5899 5897 5894 5892 5890 5887 5885 5883 5880 5878 5875 5873 5870 5868 5867 5865 5864 5863 5862 5861 5860 5860 5860 5861 5861 5862 5864 5865 5866 5867 5868 5870 5871 5873 5875 5876 5878 5880 5882 5884 5885 5887 5888 5889 5890
5903 5901 5898 5896 5893 5890 5888 5885 5883 5880 5878 5875 5872 5870 5867 5864 5861 5859 5857 5854 5852 5850 5849 5848 5847 5847 5847 5848 5849 5850 5851 5853 5855 5857 5860 5862 5864 5866 5868 5869 5870 5873 5875 5877 5878 5880 5881 5882 5883
5898 5895 5892 5890 5888 5885 5882 5880 5877 5874 5871 5868 5865 5862 5859 5856 5853 5849 5846 5843 5841 5838 5836 5834 5833 5833 5833 5834 5835 5836 5838 5841 5843 5846 5849 5852 5855 5857 5859 5862 5863 5865 5867 5869 5871 5872 5873 5875 5876
5892 5890 5887 5885 5882 5880 5877 5875 5872 5868 5865 5862 5858 5855 5852 5848 5844 5840 5836 5832 5829 5826 5823 5820 5819 5818 5818 5819 5820 5822 5824 5827 5830 5834 5838 5841 5845 5848 5850 5853 5856 5858 5860 5862 5864 5865 5866 5867 5868
5887 5885 5883 5880 5878 5875 5873 5869 5867 5862 5859 5855 5852 5848 5844 5839 5835 5831 5827 5823 5819 5814 5810 5807 5805 5804 5803 5804 5806 5808 5811 5815 5818 5822 5826 5830 5834 5838 5841 5845 5847 5849 5851 5854 5856 5858 5859 5860 5861
5883 5881 5879 5876 5874 5871 5868 5865 5862 5858 5854 5850 5846 5842 5837 5833 5828 5823 5818 5814 5809 5805 5800 5797 5794 5792 5791 5791 5793 5795 5798 5802 5806 5811 5815 5820 5824 5829 5832 5836 5839 5841 5843 5846 5848 5850 5851 5853 5854
5880 5878 5875 5872 5870 5868 5865 5862 5859 5854 5851 5847 5842 5838 5833 5827 5822 5817 5812 5807 5802 5798 5794 5790 5786 5784 5782 5781 5782 5784 5787 5791 5796 5800 5805 5809 5814 5819 5823 5827 5830 5832 5835 5837 5840 5842 5844 5845 5846
5878 5876 5873 5870 5867 5865 5861 5858 5856 5852 5848 5844 5840 5835 5829 5824 5819 5813 5808 5802 5797 5793 5789 5786 5782 5779 5776 5775 5775 5777 5779 5783 5786 5791 5795 5799 5804 5809 5814 5818 5821 5824 5826 5829 5831 5833 5835 5837 5839
5876 5874 5872 5869 5866 5862 5859 5856 5854 5849 5846 5842 5837 5832 5827 5821 5816 5811 5805 5800 5795 5791 5787 5783 5779 5776 5774 5772 5771 5772 5774 5776 5779 5783 5787 5791 5795 5800 5804 5808 5812 5815 5817 5820 5822 5824 5827 5829 5831
5875 5872 5870 5868 5864 5862 5858 5855 5852 5848 5844 5840 5835 5830 5825 5820 5815 5809 5804 5800 5795 5791 5787 5783 5779 5776 5773 5772 5770 5770 5771 5772 5774 5777 5781 5784 5788 5792 5796 5800 5803 5806 5809 5811 5813 5815 5818 5820 5822
5876 5873 5870 5867 5864 5861 5859 5855 5852 5847 5843 5839 5834 5829 5825 5820 5815 5810 5805 5800 5796 5793 5788 5785 5781 5778 5774 5773 5771 5770 5770 5770 5772 5774 5776 5779 5782 5786 5789 5792 5795 5798 5800 5802 5805 5807 5809 5811 5812
5877 5874 5871 5868 5865 5862 5858 5857 5851 5847 5843 5839 5834 5830 5826 5822 5817 5812 5807 5803 5799 5795 5791 5787 5784 5781 5778 5775 5773 5771 5770 5770 5771 5772 5774 5776 5778 5781 5783 5785 5788 5790 5792 5794 5795 5797 5799 5801 5802
5878 5875 5872 5869 5866 5862 5859 5859 5851 5847 5843 5839 5835 5831 5828 5824 5820 5815 5811 5807 5803 5799 5795 5791 5788 5784 5782 5779 5776 5774 5773 5772 5772 5772 5773 5774 5775 5777 5778 5780 5781 5782 5784 5785 5786 5787 5789 5790 5791
Wind_Speed
8 9 9 9 8 8 7 6 7 8 8 7 6 6 5 5 5 5 6 6 7 8 9 10 11 11 11 12 12 13 14 15 16 16 17 17 17 16 15 14 12 11 9 7 5 3 2 3 5
8 9 9 8 8 7 5 6 7 7 7 6 6 5 5 4 5 5 6 5 6 7 8 9 9 9 9 9 10 10 11 12 13 14 15 15 16 16 16 15 14 13 11 10 8 6 4 3 3
8 9 10 9 8 6 5 5 6 6 6 6 5 5 5 4 4 5 5 5 5 6 7 7 8 8 7 7 7 7 7 8 9 10 11 13 14 15 15 15 15 14 14 12 11 9 7 6 5
7 7 8 9 8 6 5 5 5 5 5 5 5 5 4 4 4 5 6 6 6 6 6 7 7 7 6 6 5 4 4 4 5 6 7 8 10 11 13 13 14 14 15 14 13 12 11 9 8
4 5 6 6 6 5 4 4 4 4 4 5 4 4 4 4 3 4 6 6 6 6 6 7 7 7 7 6 5 4 3 1 1 1 2 4 5 7 9 10 12 12 13 14 14 13 12 11 10
2 2 3 3 3 3 3 2 2 2 2 3 3 3 3 3 2 2 4 6 7 7 7 7 8 8 8 8 8 7 6 5 4 3 1 1 2 3 5 6 8 9 10 11 12 13 12 12 10
1 1 1 1 1 0 1 2 2 2 2 2 3 3 3 3 2 1 3 6 8 9 9 10 9 10 10 10 10 10 9 8 7 6 5 3 2 1 2 3 4 5 6 7 8 10 10 10 10
4 4 4 5 5 4 4 4 4 5 5 5 5 6 5 5 5 5 5 6 8 10 11 12 12 13 13 13 13 12 12 11 10 9 8 6 5 4 3 2 2 2 3 3 4 5 7 8 8
7 7 8 8 8 7 7 6 7 7 7 8 8 9 9 9 9 9 9 9 9 10 11 12 14 15 15 16 16 15 15 14 13 12 11 9 8 7 6 5 4 3 2 2 2 1 2 3 5
9 10 10 11 11 10 10 10 11 11 12 12 12 12 13 13 13 13 13 13 13 13 14 14 15 16 17 17 17 17 17 17 16 15 14 13 11 10 9 8 7 6 5 5 4 4 3 2 1
11 12 13 13 14 13 13 14 14 15 15 16 16 16 16 16 16 16 17 17 17 18 18 18 19 19 19 19 19 19 19 19 19 18 17 16 15 14 12 12 11 10 9 8 8 7 7 6 5
14 15 16 17 17 17 17 17 18 19 19 20 20 20 19 19 19 19 20 20 21 21 22 23 24 25 25 24 23 22 21 21 21 20 19 18 17 16 15 14 13 13 12 12 11 11 10 10 9
17 18 20 21 21 22 22 22 22 23 24 24 24 23 23 23 23 24 24 24 25 25 26 26 27 27 29 29 28 28 26 25 24 23 22 21 20 19 18 17 16 15 14 14 14 14 14 13 13
21 22 23 24 24 25 26 26 26 26 27 27 28 28 28 28 28 29 29 30 30 30 30 31 32 31 30 30 31 32 33 31 30 28 26 25 23 22 21 20 18 17 16 15 16 16 16 16 16
24 25 26 26 27 27 28 28 28 28 29 30 30 31 31 33 34 34 35 35 36 36 36 37 37 37 37 36 35 34 34 36 35 33 32 30 28 26 24 22 21 19 18 17 17 17 17 18 18
26 27 28 28 28 28 29 29 29 29 30 31 32 33 34 36 37 38 39 40 41 41 42 43 43 43 43 42 41 40 38 37 37 36 35 34 34 31 28 26 24 22 20 19 19 19 20 20 20
26 27 29 29 28 28 29 29 29 30 30 31 32 34 35 36 37 39 40 41 43 44 45 46 47 47 47 47 47 46 44 42 40 38 38 37 36 35 33 31 27 25 22 21 21 21 22 22 21
26 27 28 28 27 27 28 28 28 28 29 30 31 32 34 35 37 38 40 41 43 44 46 48 49 50 50 51 51 51 49 48 45 43 40 39 37 35 33 31 30 27 25 24 24 23 24 24 24
26 26 27 26 26 26 27 28 27 28 28 29 30 32 33 34 35 37 38 40 42 44 46 48 50 51 52 53 53 54 53 52 51 48 44 41 38 36 33 32 32 30 27 26 26 25 26 26 26
24 25 25 25 25 26 26 27 27 27 29 30 30 31 32 34 35 37 39 40 41 42 44 46 48 51 52 53 54 55 55 54 54 52 50 45 42 38 35 33 32 32 30 29 28 26 26 28 28
23 24 24 24 24 24 25 25 26 26 28 28 29 29 31 32 33 34 35 36 38 40 42 44 45 47 49 51 52 53 54 55 54 53 51 48 46 42 38 35 34 33 31 30 29 29 28 28 28
21 21 22 22 22 22 23 25 23 25 25 26 27 27 29 30 30 30 31 32 34 36 37 38 40 42 44 46 47 48 50 51 51 50 50 49 47 44 41 39 37 36 34 32 31 30 30 29 29
18 18 18 19 19 20 20 21 20 21 22 23 24 26 26 27 27 27 28 28 28 27 27 28 30 32 34 37 39 40 42 45 46 46 47 47 46 44 42 41 40 38 37 36 34 31 30 29 29
15 16 16 17 17 18 17 17 17 18 19 20 22 23 23 23 24 23 23 22 21 20 20 20 22 23 25 28 30 33 35 38 40 42 43 44 44 43 41 40 39 39 38 37 36 33 31 30 28
13 14 14 14 14 14 14 15 16 15 16 16 18 19 19 19 20 20 19 18 16 15 15 15 16 16 16 18 21 25 28 32 35 37 39 40 41 42 41 40 39 38 38 37 35 34 32 30 28
11 12 12 12 12 12 13 13 13 13 14 15 16 17 17 19 20 20 18 16 14 14 13 13 12 11 11 10 12 17 20 24 28 31 34 35 37 38 39 39 38 37 37 36 35 34 32 31 29
12 11 12 11 11 11 11 12 12 12 14 15 17 17 18 19 19 18 16 15 13 14 13 12 11 9 8 7 6 8 11 14 19 23 26 28 30 32 33 34 34 34 35 34 34 33 33 33 32
13 12 12 12 11 11 12 12 13 14 15 16 16 16 17 17 18 17 16 16 15 15 14 14 13 12 10 7 5 3 4 8 12 15 19 22 24 26 28 30 32 33 33 33 34 34 35 36 35
14 14 14 13 12 12 12 12 13 14 14 15 15 16 16 16 17 18 18 18 18 17 17 17 15 15 14 11 7 5 1 4 7 10 14 17 19 22 24 27 29 31 33 34 35 36 37 38 39
15 15 15 15 14 13 13 13 14 14 14 14 15 15 15 16 17 18 19 19 20 20 20 20 18 18 16 14 12 9 6 2 1 5 8 12 15 18 21 24 26 29 32 34 36 37 38 39 40
Wind_Direction
78 80 83 83 85 79 84 94 100 109 111 109 106 99 91 95 106 119 123 126 122 115 110 109 105 101 96 89 83 78 75 73 72 73 74 73 72 71 71 70 70 71 73 76 80 96 123 171 194
77 78 81 81 76 72 78 89 98 102 105 111 111 104 98 101 115 129 136 141 142 133 123 119 118 115 109 101 92 83 77 72 70 69 70 70 70 69 69 68 68 68 69 69 70 74 82 100 138
76 78 78 78 69 71 72 76 82 90 96 99 95 94 94 106 126 148 155 159 162 157 146 137 135 133 128 120 111 98 84 74 70 67 67 68 69 69 67 67 67 67 68 68 68 71 75 84 103
79 75 72 69 65 69 71 70 71 80 88 87 84 86 91 107 137 167 178 179 179 179 173 165 160 159 156 151 145 131 109 87 75 68 67 67 68 69 68 67 67 67 67 68 69 71 75 81 94
87 77 66 62 60 68 67 65 67 70 84 83 77 74 80 96 128 176 196 198 198 199 196 193 192 192 192 193 196 201 204 199 146 82 73 71 72 72 71 69 68 67 67 68 70 72 74 78 85
110 97 63 53 50 57 53 49 46 49 59 58 50 42 40 54 96 173 212 220 222 222 219 215 215 218 220 221 223 228 235 241 244 238 220 150 99 87 81 78 73 70 68 69 69 71 73 75 78
226 205 264 273 280 302 358 332 323 330 344 344 341 340 341 340 340 269 238 237 239 240 239 235 233 235 237 238 238 239 242 246 248 248 243 237 221 176 125 105 93 84 78 73 71 71 71 73 74
268 271 274 271 265 260 275 294 304 308 310 308 307 307 305 301 297 288 271 258 252 250 249 247 246 246 247 247 247 246 248 250 251 252 250 246 239 229 212 187 159 132 111 96 84 76 72 72 73
273 277 278 280 280 280 286 285 286 289 293 294 296 297 296 291 285 277 270 265 263 261 258 256 254 253 252 252 252 250 251 253 254 254 255 252 246 240 233 226 219 210 198 185 173 136 89 77 75
276 281 285 288 291 290 292 290 285 284 287 286 285 290 291 288 281 273 267 263 261 260 260 260 260 257 256 255 254 253 251 252 254 254 255 256 253 248 242 238 235 233 230 227 226 225 223 213 176
277 284 288 293 293 291 290 288 288 285 287 288 286 286 287 284 280 274 268 265 263 260 259 259 259 258 256 255 253 252 250 249 250 251 251 252 253 252 249 246 243 242 240 238 237 235 235 232 227
278 282 285 288 289 290 291 290 290 288 288 287 286 286 283 280 276 273 269 266 264 263 261 259 257 256 255 254 252 251 249 248 248 248 247 248 249 250 251 249 247 246 245 245 243 241 240 239 236
277 279 282 286 288 290 290 290 289 287 287 285 284 282 280 277 275 272 269 267 265 263 262 261 260 258 254 252 250 250 250 248 246 245 245 245 246 248 249 249 248 247 247 247 248 247 246 245 244
276 279 282 285 287 289 290 290 289 288 286 284 282 280 278 276 273 271 269 266 264 262 261 260 258 257 256 254 252 252 249 248 246 243 243 243 244 245 247 248 249 249 249 249 250 250 250 250 250
278 280 283 286 288 290 290 290 289 287 286 284 282 279 276 274 272 270 267 265 264 263 261 260 258 257 255 254 254 253 251 248 246 244 241 241 241 242 244 247 248 250 251 252 253 253 253 253 253
281 284 286 288 290 290 289 290 288 286 284 282 280 278 276 273 271 269 267 266 264 262 261 260 260 259 257 254 253 252 252 251 248 245 243 241 240 240 240 243 245 249 252 254 256 257 257 257 257
285 288 289 291 292 291 290 289 288 286 284 282 280 279 277 275 273 272 270 268 266 264 262 260 259 258 258 256 254 254 252 251 250 246 244 243 243 241 240 241 242 246 251 256 258 261 262 261 261
288 290 291 292 293 292 290 289 288 287 285 284 282 281 280 279 277 276 275 273 270 268 265 263 261 259 258 257 256 255 253 253 252 249 247 246 246 244 244 243 243 245 250 255 259 262 263 263 263
290 291 291 292 291 289 289 289 289 289 289 287 286 286 285 284 283 281 279 277 275 272 269 266 263 260 259 258 256 255 253 252 252 252 251 249 247 247 246 247 247 248 250 255 259 263 265 265 265
291 290 290 289 289 289 289 290 290 290 290 290 290 289 289 288 287 286 284 281 279 276 273 270 266 263 261 259 256 255 255 253 251 250 251 250 249 249 251 252 253 253 255 257 260 265 267 267 266
291 290 290 291 290 289 291 291 292 292 292 293 294 293 292 291 290 289 287 286 284 281 278 275 271 267 264 261 258 256 254 252 251 251 250 251 251 252 253 254 255 258 259 259 261 263 267 267 267
292 291 291 291 291 292 295 296 297 298 299 300 302 302 303 303 300 296 293 291 289 287 284 279 274 270 266 262 260 257 254 252 251 251 250 251 252 254 255 256 257 258 260 262 266 266 267 268 269
296 296 296 296 296 298 299 300 305 305 306 309 312 313 312 312 310 307 304 301 298 296 292 287 281 276 269 263 259 256 253 250 249 248 249 249 250 252 253 256 257 258 261 264 266 267 269 269 267
305 305 304 303 303 304 305 307 311 312 315 317 319 320 319 319 320 320 318 314 310 305 302 296 290 284 275 264 257 253 249 245 243 244 246 247 248 250 252 253 256 258 259 261 263 264 264 263 264
318 318 317 317 315 313 313 317 321 324 326 328 330 329 330 332 334 333 334 333 330 325 320 313 304 299 287 270 258 252 247 242 239 239 240 241 242 244 248 250 253 256 257 258 258 259 257 257 257
338 336 335 333 329 328 329 333 337 338 339 340 340 339 340 342 341 340 342 347 348 349 345 339 331 319 310 290 266 251 244 240 238 237 237 237 238 240 242 246 250 252 253 253 253 253 251 250 253
359 357 354 351 347 346 347 346 347 349 349 350 353 354 353 353 352 353 355 358 1 4 1 358 4 354 339 325 293 258 241 236 232 233 234 233 235 237 239 242 244 246 247 247 247 247 247 249 251
16 16 14 10 6 2 355 355 357 356 357 359 3 5 6 9 9 13 15 17 22 18 17 19 24 25 23 15 2 312 251 232 227 226 227 227 229 232 235 239 241 242 243 244 245 246 248 250 253
30 29 26 20 15 10 7 6 3 4 7 9 12 15 18 21 23 29 33 36 35 34 33 34 34 35 36 37 34 22 351 238 235 232 231 230 230 232 235 238 240 242 244 246 247 249 251 253 254
36 32 28 24 20 16 12 13 12 16 18 20 22 27 31 33 36 40 42 44 45 43 40 38 38 36 35 37 36 33 33 34 225 230 234 235 236 238 240 242 244 245 247 249 251 252 253 254 255